Voltar ao catálogo

STARLINK-31404

AtivoComunicaçõesVLEO
NORAD 59521·PAYLOAD·🇺🇸 United States

Lançado Apr 17, 2024 de Cape Canaveral Space Force Station

Loading…

Próximas Passagens (próximas 24 horas)

TLE

AtualizadoSource: CelesTrak SupGP

Época: Sep 15, 2026, 02:21 UTC

1 59521C 24073L   26258.09840278  .00038880  00000+0  14079-2 0  2586
2 59521  43.0034 328.6708 0001789 270.3927 294.4892 15.27567013    13

Acompanhe STARLINK-31404 em tempo real com AllMySat

Download on the App Store